Weather History for Merida, Mexico

Change the Weather History Date:

Wednesday, July 3, 2013

  Actual Average Record
Temperature  
Mean Temperature 82 °F -  
Max Temperature 92 °F 93 °F 102 °F (2004)
Min Temperature 73 °F 74 °F 73 °F (2000)
Cooling Degree Days 18    
Growing Degree Days 32 (Base 50)    
Moisture  
Dew Point 73 °F    
Average Humidity 85    
Maximum Humidity 99    
Minimum Humidity 56    
Precipitation  
Precipitation 0.43 in - - ()
Sea Level Pressure  
Sea Level Pressure 29.93 in    
Wind  
Wind Speed 5 mph ()    
Max Wind Speed 17 mph    
Max Gust Speed -    
Visibility 5.3 miles    
Events Rain , Thunderstorm    
Averages and records for this station are not official NWS values.
T = Trace of Precipitation, MM = Missing Value Source: Averaged Metar Reports

Daily Weather History Graph

Daily Weather History Graph

Search for Another Location

Airport:

Trip Planner

Search our weather history database for the weather conditions in past years. The results will help you decide how hot, cold, wet, or windy it might be!

Date:

Astronomy

Jul. 03, 2013 Rise Set
Actual Time 6:21 AM CDT 7:44 PM CDT
Civil Twilight 5:57 AM CDT 8:08 PM CDT
Nautical Twilight 5:27 AM CDT 8:38 PM CDT
Astronomical Twilight 4:57 AM CDT 9:08 PM CDT
Moon 2:45 AM CDT (7/3) 4:05 PM CDT (7/3)
Length of Visible Light 14h 11m
Length of Day
13h 22m
Waning Crescent, 18% of the Moon is Illuminated
Jul 3
Waning Crescent
Jul 8
New
Jul 15
First Quarter
Jul 22
Full
Jul 29
Last Quarter

Hourly Weather History & Observations

Time (CDT) Temp. Heat Index Dew Point Humidity Pressure Visibility Wind Dir Wind Speed Gust Speed Precip Events Conditions
12:48 AM 77.0 °F - 73.4 °F 89% 29.94 in 7.0 mi ESE 4.6 mph - N/A   Overcast
12:50 AM 77 °F - 76 °F 94% 29.95 in 3 mi ESE 2.2 mph - -   Partly Cloudy
1:48 AM 77.0 °F - 73.4 °F 89% 29.93 in 7.0 mi East 4.6 mph - N/A   Overcast
2:47 AM 75.2 °F - 73.4 °F 94% 29.92 in 7.0 mi ESE 4.6 mph - N/A   Overcast
3:43 AM 75.2 °F - 73.4 °F 94% 29.91 in 7.0 mi Calm Calm - N/A   Mostly Cloudy
3:50 AM 77 °F - 76 °F 94% 29.90 in 3 mi Calm Calm - -   Scattered Clouds
4:47 AM 75.2 °F - 73.4 °F 94% 29.89 in 7.0 mi Calm Calm - N/A   Scattered Clouds
5:44 AM 75.2 °F - 73.4 °F 94% 29.92 in 7.0 mi Calm Calm - N/A   Mostly Cloudy
6:49 AM 75.2 °F - 73.4 °F 94% 29.94 in 7.0 mi East 4.6 mph - N/A   Overcast
6:50 AM 77 °F - 75 °F 92% 29.96 in 6 mi East 2.2 mph - -   Mostly Cloudy
7:44 AM 77.0 °F - 73.4 °F 89% 29.96 in 7.0 mi Calm Calm - N/A   Overcast
8:47 AM 80.6 °F 85.4 °F 73.4 °F 79% 29.95 in 7.0 mi ESE 5.8 mph - N/A   Mostly Cloudy
9:47 AM 84.2 °F 89.6 °F 71.6 °F 66% 29.94 in 7.0 mi ESE 5.8 mph - N/A   Mostly Cloudy
9:50 AM 86 °F - 76 °F 66% 29.96 in 6 mi SSE 4.5 mph - -   Scattered Clouds
10:45 AM 84.2 °F 90.9 °F 73.4 °F 70% 29.95 in 7.0 mi Calm Calm - N/A   Mostly Cloudy
11:43 AM 86.0 °F 91.8 °F 71.6 °F 62% 29.94 in 7.0 mi Calm Calm - N/A   Mostly Cloudy
12:48 PM 87.8 °F 95.6 °F 73.4 °F 62% 29.94 in 7.0 mi SSW 5.8 mph - N/A   Mostly Cloudy
12:50 PM 90 °F - 76 °F 56% 29.93 in 6 mi SSW 2.2 mph - -   Partly Cloudy
1:45 PM 87.8 °F 93.8 °F 71.6 °F 58% 29.90 in 7.0 mi Calm Calm - N/A   Mostly Cloudy
2:37 PM 84.2 °F 89.6 °F 71.6 °F 66% 29.89 in 7.0 mi NNE 11.5 mph - N/A   Overcast
2:55 PM 80.6 °F 84.6 °F 71.6 °F 74% 29.88 in 7.0 mi NE 11.5 mph - N/A Thunderstorm Thunderstorm
3:26 PM 77.0 °F - 71.6 °F 83% 29.90 in 5.0 mi ESE 13.8 mph - N/A Rain , Thunderstorm Light Thunderstorms and Rain
3:35 PM 77.0 °F - 73.4 °F 89% 29.89 in 2.0 mi East 11.5 mph - N/A Rain , Thunderstorm Thunderstorms and Rain
3:50 PM 79 °F - 77 °F 90% 29.90 in 6 mi ESE 2.2 mph - -   Overcast
3:54 PM 75.2 °F - 73.4 °F 94% 29.91 in 3.0 mi ENE 9.2 mph - N/A Rain , Thunderstorm Thunderstorms and Rain
4:03 PM 77.0 °F - 73.4 °F 89% 29.89 in 5.0 mi ENE 6.9 mph - N/A Rain , Thunderstorm Light Thunderstorms and Rain
4:45 PM 77.0 °F - 75.2 °F 94% 29.89 in 5.0 mi East 13.8 mph - N/A   Drizzle
5:09 PM 77.0 °F - 73.4 °F 89% 29.90 in 3.0 mi ESE 17.3 mph - N/A Rain Light Rain
5:51 PM 75.2 °F - 71.6 °F 89% 29.92 in 4.0 mi SE 11.5 mph - N/A Rain Light Rain
6:11 PM 75.2 °F - 71.6 °F 89% 29.92 in 3.0 mi SE 11.5 mph - N/A Rain Light Rain
6:49 PM 75.2 °F - 71.6 °F 89% 29.94 in 3.0 mi ESE 9.2 mph - N/A Rain Light Rain
6:50 PM 75 °F - 75 °F 99% 29.94 in 3 mi SE 4.5 mph - - Rain Light Drizzle
7:51 PM 75.2 °F - 73.4 °F 94% 29.93 in 3.0 mi ESE 11.5 mph - N/A Rain Light Rain
8:46 PM 75.2 °F - 71.6 °F 89% 29.95 in 4.0 mi ESE 9.2 mph - N/A Rain Light Rain
9:48 PM 73.4 °F - 71.6 °F 94% 29.99 in 4.0 mi ESE 6.9 mph - N/A Rain Light Rain
9:50 PM 75 °F - 74 °F 96% 29.97 in 3 mi SE 2.2 mph - - Rain Light Drizzle
10:48 PM 73.4 °F - 71.6 °F 94% 29.94 in 4.0 mi ESE 9.2 mph - N/A Rain Light Rain
11:41 PM 75.2 °F - 71.6 °F 89% 29.94 in 6.0 mi East 10.4 mph - N/A Rain Light Rain